[[{"header":{"parameterUnit":"m.s-1","parameterCategory":1,"la1":30.2992,"la2":30.254,"lo1":-89.0895,"lo2":-89.0443,"dy":0.0025,"dx":0.0025,"nx":19,"ny":19,"refTime":"2026-03-25T09:00:00:Z","depth":0,"parameterNumber":2,"parameterNumberName":"U-component_of_WINDS"},"data":[0,0,0,0.6848,0.685,0.6951,0.6951,0.7066,0.7066,0,0,0,0,0,0,0,0,0,0,0,0.6811,0.6811,0.6847,0.685,0.6951,0.6951,0.7065,0.7066,0,0,0,0,0,0,0,0,0,0,0,0.681,0.6811,0.6812,0.685,0.695,0.6951,0.7065,0.6994,0,0,0,0,0,0,0,0,0,0,0.6898,0.6857,0.6811,0.6812,0.6851,0.695,0.6951,0.6991,0.6998,0.7014,0,0.7028,0,0.7049,0.7073,0.7074,0,0,0,0.6855,0.6851,0.6885,0.6812,0.6852,0.695,0.6907,0.6995,0.7004,0.7024,0.703,0.7034,0.7051,0.7074,0.7075,0.7153,0.7153,0,0,0.6849,0.6824,0.6879,0.689,0.6875,0.6903,0.691,0.7001,0.7004,0.703,0.7037,0.7053,0.7075,0.7075,0.7153,0.7153,0,0,0,0.683,0.682,0.6852,0.6885,0.6904,0.6906,0.6913,0.7,0.7013,0.7038,0.7054,0.7075,0.7077,0.7153,0.7153,0.7135,0,0,0,0.6827,0.6809,0.685,0.6835,0.6902,0.6954,0.691,0.7006,0.7017,0.7054,0.7075,0.7078,0.7152,0.7153,0.7136,0.7131,0,0,0,0.6806,0.6807,0.6819,0.6834,0.6877,0.6953,0.6971,0.7009,0.7027,0.7074,0.7078,0.7152,0.7153,0.7136,0.7132,0.7144,0,0,0,0.6777,0.6802,0.6818,0.6852,0.6876,0.6942,0.6971,0.7021,0.7059,0.7076,0.7152,0.7153,0.7136,0.7132,0.7144,0.7151,0.7151,0,0,0.6794,0.6803,0.6825,0.6843,0.69,0.6929,0.6983,0.7041,0.7067,0.7122,0.7125,0.7136,0.7132,0.7144,0.7162,0.7162,0,0,0,0.6822,0.6837,0.6858,0.6894,0.6939,0.6978,0.703,0.7052,0.71,0.7091,0.7145,0.7143,0.7152,0.7156,0.7156,0.7164,0.7154,0.7154,0.7154,0.681,0.6843,0.6881,0.6927,0.6961,0.7016,0.7046,0.7084,0.7107,0.7119,0.7135,0.7142,0.7146,0.7147,0.7155,0.7142,0.7142,0.7142,0.7142,0.6838,0.6864,0.6895,0.6943,0.6978,0.7018,0.7071,0.7086,0.7127,0.7133,0.7142,0.7145,0.7146,0.7155,0.7141,0.7141,0.7141,0.7141,0.7141,0.6833,0.6852,0.6879,0.6934,0.6973,0.7018,0.7057,0.7087,0.7115,0.7124,0.7144,0.7145,0.7148,0.7132,0.7132,0.7132,0.7132,0.7132,0.7132,0.6818,0.6849,0.6879,0.6929,0.6956,0.6996,0.705,0.7077,0.7114,0.7133,0.7133,0.7154,0.714,0.7135,0.7132,0.7132,0.7132,0.7132,0.7132,0.6833,0.6835,0.6881,0.6908,0.697,0.7006,0.7044,0.7096,0.7123,0.7141,0.716,0.7145,0.7155,0.7155,0.7152,0.7153,0.7153,0.7153,0.7153,0.6829,0.6838,0.6892,0.6933,0.6977,0.7016,0.7065,0.7108,0.7151,0.7169,0.7173,0.7171,0.717,0.7181,0.7181,0.7178,0.7186,0.7186,0.7186,0.684,0.6854,0.6891,0.6936,0.6986,0.7028,0.7075,0.712,0.717,0.7188,0.7184,0.7183,0.718,0.7177,0.7195,0.7193,0.7189,0,0]},{"header":{"parameterUnit":"m.s-1","parameterCategory":1,"la1":30.2992,"la2":30.254,"lo1":-89.0895,"lo2":-89.0443,"dy":0.0025,"dx":0.0025,"nx":19,"ny":19,"refTime":"2026-03-25T09:00:00:Z","depth":0,"parameterNumber":3,"parameterNumberName":"V-component_of_WINDS"},"data":[0,0,0,2.0879,2.088,2.0892,2.0892,2.0919,2.0919,0,0,0,0,0,0,0,0,0,0,0,2.0883,2.0883,2.0879,2.088,2.0892,2.0892,2.0919,2.0919,0,0,0,0,0,0,0,0,0,0,0,2.0883,2.0883,2.0884,2.088,2.0892,2.0892,2.0919,2.0905,0,0,0,0,0,0,0,0,0,0,2.0892,2.0902,2.0883,2.0884,2.088,2.0892,2.0892,2.0905,2.0906,2.0918,0,2.0931,0,2.0926,2.0922,2.0922,0,0,0,2.0874,2.0901,2.0897,2.0884,2.088,2.0892,2.0885,2.0905,2.0907,2.0921,2.0931,2.0932,2.0926,2.0922,2.0922,2.101,2.1011,0,0,2.0874,2.0889,2.0896,2.0899,2.0898,2.0885,2.0885,2.0906,2.0919,2.0931,2.0932,2.0926,2.0922,2.0922,2.101,2.101,0,0,0,2.0875,2.0889,2.0885,2.0898,2.09,2.0885,2.0886,2.0918,2.0915,2.0933,2.0927,2.0922,2.0923,2.1009,2.101,2.1058,0,0,0,2.0875,2.089,2.0885,2.0894,2.0899,2.0909,2.0897,2.0914,2.0916,2.0927,2.0922,2.0923,2.1008,2.1009,2.1055,2.1079,0,0,0,2.088,2.089,2.0894,2.0895,2.09,2.0908,2.0907,2.0914,2.0913,2.0922,2.0923,2.1008,2.1009,2.1053,2.1075,2.1108,0,0,0,2.0889,2.0936,2.0895,2.0946,2.0901,2.0938,2.0906,2.0933,2.0947,2.0923,2.1008,2.101,2.1052,2.1072,2.1105,2.1139,2.1154,0,0,2.0957,2.0945,2.0974,2.0937,2.0986,2.0935,2.099,2.0988,2.0975,2.0999,2.1001,2.1056,2.1074,2.1107,2.1232,2.1245,0,0,0,2.1001,2.1021,2.1031,2.1045,2.1044,2.1046,2.1034,2.1033,2.1053,2.099,2.1076,2.1086,2.1105,2.112,2.1131,2.1146,2.1017,2.1017,2.1017,2.112,2.11,2.1146,2.1129,2.1142,2.1129,2.1139,2.1135,2.1111,2.1132,2.114,2.1218,2.1237,2.1245,2.1261,2.1155,2.1155,2.1155,2.1155,2.1219,2.1246,2.1213,2.1246,2.1226,2.1253,2.1242,2.1224,2.1247,2.121,2.1226,2.1189,2.1259,2.1272,2.1159,2.1158,2.1158,2.1157,2.1157,2.1296,2.1306,2.1304,2.1322,2.1338,2.1318,2.1342,2.1321,2.1302,2.1317,2.1324,2.1323,2.1321,2.1322,2.1322,2.1322,2.1322,2.1323,2.1323,2.1378,2.1374,2.1396,2.14,2.1406,2.1412,2.1399,2.1405,2.1406,2.1389,2.1389,2.1364,2.1269,2.1246,2.1327,2.1326,2.1326,2.1325,2.1325,2.1488,2.146,2.1495,2.1502,2.1504,2.1522,2.1495,2.1509,2.151,2.1523,2.1494,2.1426,2.1412,2.1404,2.1385,2.1497,2.1497,2.1497,2.1497,2.1555,2.1545,2.1577,2.1589,2.1598,2.1577,2.1618,2.1608,2.1594,2.1594,2.1574,2.1547,2.1539,2.153,2.1519,2.1501,2.164,2.164,2.164,2.1622,2.1613,2.1652,2.1637,2.1638,2.1639,2.1676,2.1691,2.1669,2.1646,2.1593,2.1587,2.1543,2.1529,2.1507,2.149,2.1457,0,0]}]]